2018-055C

Last updated on June 30, 2018, 12:15 a.m. UTC

1 43524U 18055C   18180.86349392  .00700965  21605-3  11090-2 0  9996
2 43524  51.6342 315.9183 0099384  48.1319  83.7325 15.94252700    69

Satellite is not in orbit.